Terminal Aerodrome Forecast
Issued by NWS Spokane, WA

Home | Current Version | Previous Version | Text Only | Print | Product List | Glossary On
Versions: 1 2 3 4 5 6 7 8 9 10 11 12 13 14 15 16 17 18 19 20 21 22 23 24 25 26 27 28 29 30 31 32 33 34 35 36 37 38 39 40 41 42 43 44 45
000
FTUS46 KOTX 260925 AAA
TAFEAT
TAF AMD
KEAT 260925Z 2609/2706 30005KT P6SM OVC003
     FM261300 30003KT 1/4SM FG OVC002
     FM261800 02004KT 1/2SM FG OVC001
     FM261900 10003KT 4SM BR SKC=

USA.gov is the U.S. government's official web portal to all federal, state and local government web resources and services.